Bluefield, WV

8:10 PM EST on November 11, 2019 (GMT -0500)
Mercer County

Weather History for KBLF - October, 2019

Change the Weather History Date:

Saturday, October 12, 2019

  Actual Average Record
Temperature  
Mean Temperature 54 °F 57 °F  
Max Temperature 63 °F 67 °F 82 °F (1954)
Min Temperature 45 °F 48 °F 27 °F (1958)
Degree Days  
Heating Degree Days 11 8  
Month to date heating degree days 55 84  
Since 1 July heating degree days 83 163  
Cooling Degree Days 0 1  
Month to date cooling degree days 32 12  
Year to date cooling degree days 748 844  
Growing Degree Days 4 (Base 50)    
Moisture  
Dew Point 50 °F    
Average Humidity 83    
Maximum Humidity 100    
Minimum Humidity 65    
Precipitation  
Precipitation T in 0.08 in 1.55 in (1919)
Month to date precipitation 1.24 1.01  
Year to date precipitation 29.77 32.54  
Snow  
Snow 0.00 in - - ()
Month to date snowfall 0.0  
Since 1 July snowfall 0.0  
Since 1 September snowfall 0.0  
Snow Depth 0.00 in    
Sea Level Pressure  
Sea Level Pressure 30.07 in    
Wind  
Wind Speed 5 mph (WNW)    
Max Wind Speed 12 mph    
Max Gust Speed 16 mph    
Visibility 7 miles    
Events Fog , Rain    
T = Trace of Precipitation, MM = Missing Value Source: NWS Daily Summary

Daily Weather History Graph

Daily Weather History Graph

Search for Another Location

Airport or City:

Astronomy

Oct. 12, 2019 Rise Set
Actual Time 7:29 AM EDT 6:52 PM EDT
Civil Twilight 7:03 AM EDT 7:18 PM EDT
Nautical Twilight 6:33 AM EDT 7:48 PM EDT
Astronomical Twilight 6:03 AM EDT 8:18 PM EDT
Moon 6:45 PM EDT 6:08 AM EDT
Length of Visible Light 12h 14m
Length of Day
11h 22m
Waxing Gibbous, 99% of the Moon is Illuminated
Oct 12
Waxing Gibbous
Oct 13
Full
Oct 21
Last Quarter
Oct 27
New
Nov 4
First Quarter

Hourly Weather History & Observations

Time (EDT) Temp. Windchill Dew Point Humidity Pressure Visibility Wind Dir Wind Speed Gust Speed Precip Events Conditions
12:52 AM 62.1 °F - 50.0 °F 65% 29.98 in 10.0 mi South 5.8 mph - N/A   Clear
1:52 AM 62.1 °F - 50.0 °F 65% 29.97 in 10.0 mi SSW 3.5 mph - N/A   Clear
2:52 AM 62.1 °F - 51.1 °F 67% 29.96 in 10.0 mi SW 5.8 mph - N/A   Mostly Cloudy
3:52 AM 60.1 °F - 51.1 °F 72% 29.96 in 10.0 mi Calm Calm - N/A   Overcast
4:52 AM 61.0 °F - 51.1 °F 70% 29.95 in 10.0 mi West 3.5 mph - N/A   Overcast
5:52 AM 60.1 °F - 52.0 °F 75% 29.96 in 10.0 mi West 4.6 mph - N/A   Overcast
6:52 AM 61.0 °F - 52.0 °F 72% 29.98 in 10.0 mi West 6.9 mph - N/A   Overcast
7:52 AM 61.0 °F - 52.0 °F 72% 29.99 in 10.0 mi WSW 10.4 mph - N/A   Overcast
8:52 AM 60.1 °F - 53.1 °F 78% 30.02 in 10.0 mi West 8.1 mph - N/A   Overcast
9:34 AM 57.0 °F - 55.9 °F 96% 30.09 in 10.0 mi Variable 4.6 mph - 0.00 in   Overcast
9:41 AM 57.0 °F - 55.9 °F 96% 30.10 in 10.0 mi West 5.8 mph - 0.00 in   Overcast
9:52 AM 57.0 °F - 55.9 °F 96% 30.04 in 10.0 mi West 4.6 mph - 0.00 in   Overcast
10:23 AM 57.0 °F - 55.9 °F 96% 30.10 in 10.0 mi West 5.8 mph - N/A   Overcast
10:52 AM 55.9 °F - 55.0 °F 97% 30.04 in 10.0 mi NNW 4.6 mph - N/A   Overcast
11:17 AM 54.0 °F - 54.0 °F 100% 30.11 in 1.8 mi WNW 8.1 mph - N/A   Overcast
11:25 AM 54.0 °F - 54.0 °F 100% 30.11 in 0.2 mi NW 10.4 mph - N/A Fog Fog
11:52 AM 52.0 °F - 52.0 °F 100% 30.06 in 1.0 mi WNW 8.1 mph - N/A   Mist
11:56 AM 52.0 °F - 52.0 °F 100% 30.11 in 2.0 mi NW 8.1 mph - N/A   Overcast
12:02 PM 52.0 °F - 52.0 °F 100% 30.11 in 1.0 mi NW 6.9 mph - N/A   Mist
12:10 PM 52.0 °F - 52.0 °F 100% 30.12 in 0.5 mi WNW 5.8 mph - N/A Fog Fog
12:20 PM 52.0 °F - 52.0 °F 100% 30.11 in 1.2 mi NW 5.8 mph - 0.00 in Rain Light Rain
12:31 PM 52.0 °F - 52.0 °F 100% 30.12 in 1.0 mi WNW 5.8 mph - 0.00 in Rain Light Rain
12:36 PM 52.0 °F - 52.0 °F 100% 30.12 in 1.2 mi West 9.2 mph - 0.00 in Rain Light Rain
12:40 PM 52.0 °F - 52.0 °F 100% 30.12 in 3.0 mi West 6.9 mph - 0.00 in   Overcast
12:52 PM 51.1 °F - 51.1 °F 100% 30.07 in 2.0 mi West 8.1 mph - 0.00 in   Overcast
1:15 PM 51.1 °F - 51.1 °F 100% 30.12 in 4.0 mi Variable 6.9 mph - 0.00 in   Overcast
1:34 PM 50.0 °F - 50.0 °F 100% 30.12 in 5.0 mi West 8.1 mph - 0.00 in   Overcast
1:52 PM 50.0 °F - 50.0 °F 100% 30.07 in 4.0 mi NW 10.4 mph - 0.00 in Rain Light Rain
2:19 PM 50.0 °F - 48.9 °F 96% 30.12 in 10.0 mi West 6.9 mph - 0.00 in   Overcast
2:52 PM 50.0 °F - 46.9 °F 89% 30.07 in 10.0 mi West 8.1 mph - 0.00 in   Overcast
3:00 PM 50.0 °F - 46.9 °F 89% 30.12 in 10.0 mi West 5.8 mph - N/A   Overcast
3:30 PM 51.1 °F - 46.9 °F 86% 30.11 in 10.0 mi West 4.6 mph - N/A   Overcast
3:52 PM 50.0 °F - 48.0 °F 93% 30.07 in 10.0 mi Variable 3.5 mph - N/A   Overcast
4:10 PM 50.0 °F - 46.9 °F 89% 30.12 in 10.0 mi Variable 4.6 mph - N/A   Overcast
4:52 PM 48.9 °F - 46.9 °F 93% 30.09 in 10.0 mi WNW 8.1 mph - N/A   Overcast
5:52 PM 48.9 °F - 46.9 °F 93% 30.09 in 10.0 mi WNW 4.6 mph - N/A   Overcast
6:47 PM 48.2 °F - 46.4 °F 93% 30.13 in 10.0 mi WNW 4.6 mph - N/A   Overcast
6:52 PM 48.0 °F - 46.9 °F 96% 30.09 in 10.0 mi WNW 4.6 mph - N/A   Overcast
7:52 PM 46.9 °F - 46.9 °F 100% 30.09 in 10.0 mi NW 5.8 mph - N/A   Overcast
8:52 PM 46.0 °F 43.9 °F 45.0 °F 96% 30.10 in 10.0 mi NW 4.6 mph - N/A   Overcast
9:52 PM 46.0 °F - 45.0 °F 96% 30.10 in 10.0 mi Calm Calm - N/A   Overcast
10:02 PM 46.0 °F 43.9 °F 45.0 °F 96% 30.13 in 10.0 mi West 4.6 mph - N/A   Overcast
10:52 PM 45.0 °F - 45.0 °F 100% 30.09 in 3.0 mi Calm Calm - N/A   Overcast
10:58 PM 45.0 °F - 45.0 °F 100% 30.12 in 2.0 mi Calm Calm - N/A   Overcast
11:52 PM 45.0 °F - 45.0 °F 100% 30.09 in 2.5 mi Calm Calm - N/A   Overcast
11:56 PM 45.0 °F - 45.0 °F 100% 30.10 in 3.0 mi Calm Calm - N/A   Overcast